Waterloo, IA

1:16 PM CDT on July 20, 2017 (GMT -0500)
Waterloo Municipal

Weather History for KALO - May, 2014

Change the Weather History Date:

Saturday, May 10, 2014

  Actual Average Record
Temperature  
Mean Temperature 57 °F 58 °F  
Max Temperature 77 °F 70 °F 93 °F (2011)
Min Temperature 37 °F 47 °F 29 °F (1966)
Degree Days  
Heating Degree Days 8 7  
Month to date heating degree days 92 88  
Since 1 July heating degree days 8200 6904  
Cooling Degree Days 0 1  
Month to date cooling degree days 8 10  
Year to date cooling degree days 10 18  
Growing Degree Days 7 (Base 50)    
Moisture  
Dew Point 42 °F    
Average Humidity 60    
Maximum Humidity 92    
Minimum Humidity 27    
Precipitation  
Precipitation T in 0.14 in 1.47 in (1967)
Month to date precipitation 0.17 1.40  
Year to date precipitation 11.54 8.99  
Snow  
Snow 0.00 in 0.00 in 2.00 in (1945)
Month to date snowfall 0.0 0.0  
Since 1 July snowfall 58.0 35.3  
Snow Depth 0.00 in    
Sea Level Pressure  
Sea Level Pressure 29.85 in    
Wind  
Wind Speed 6 mph (SE)    
Max Wind Speed 25 mph    
Max Gust Speed 32 mph    
Visibility 10 miles    
Events Rain    
T = Trace of Precipitation, MM = Missing Value Source: NWS Daily Summary

Daily Weather History Graph

Daily Weather History Graph

Search for Another Location

Airport or City:

Trip Planner

Search our weather history database for the weather conditions in past years. The results will help you decide how hot, cold, wet, or windy it might be!

Date:

Astronomy

May. 10, 2014 Rise Set
Actual Time 5:53 AM CDT 8:19 PM CDT
Civil Twilight 5:21 AM CDT 8:51 PM CDT
Nautical Twilight 4:41 AM CDT 9:31 PM CDT
Astronomical Twilight 3:57 AM CDT 10:15 PM CDT
Moon 4:10 PM CDT (5/10) 3:32 AM CDT (5/10)
Length of Visible Light 15h 30m
Length of Day
14h 26m
Waxing Gibbous, 82% of the Moon is Illuminated
May 10
Waxing Gibbous
May 14
Full
May 21
Last Quarter
May 28
New
Jun 5
First Quarter

Hourly Weather History & Observations

Time (CDT) Temp. Windchill Dew Point Humidity Pressure Visibility Wind Dir Wind Speed Gust Speed Precip Events Conditions
12:54 AM 43.0 °F - 37.0 °F 80% 29.87 in 10.0 mi Calm Calm - N/A   Clear
1:54 AM 39.0 °F 35.7 °F 35.1 °F 86% 29.87 in 10.0 mi ENE 4.6 mph - N/A   Clear
2:54 AM 39.0 °F - 35.1 °F 86% 29.87 in 10.0 mi Calm Calm - N/A   Clear
3:54 AM 39.0 °F - 35.1 °F 86% 29.87 in 10.0 mi Calm Calm - N/A   Clear
4:54 AM 37.9 °F - 35.1 °F 89% 29.88 in 10.0 mi Calm Calm - N/A   Clear
5:54 AM 37.0 °F 34.5 °F 34.0 °F 89% 29.88 in 10.0 mi ENE 3.5 mph - N/A   Clear
6:54 AM 41.0 °F - 37.0 °F 86% 29.90 in 10.0 mi Calm Calm - N/A   Clear
7:54 AM 48.0 °F - 42.1 °F 80% 29.90 in 10.0 mi Calm Calm - N/A   Clear
8:54 AM 57.0 °F - 43.0 °F 59% 29.90 in 10.0 mi SE 5.8 mph - N/A   Clear
9:54 AM 62.1 °F - 43.0 °F 50% 29.90 in 10.0 mi SE 5.8 mph - N/A   Mostly Cloudy
10:54 AM 66.0 °F - 45.0 °F 47% 29.88 in 10.0 mi SE 4.6 mph - N/A   Overcast
11:54 AM 68.0 °F - 46.9 °F 47% 29.88 in 10.0 mi ESE 3.5 mph - 0.00 in Rain Light Rain
12:54 PM 70.0 °F - 46.0 °F 42% 29.88 in 10.0 mi SSE 4.6 mph - 0.00 in   Overcast
1:54 PM 70.0 °F - 48.0 °F 46% 29.86 in 10.0 mi Variable 3.5 mph - 0.00 in   Overcast
2:54 PM 73.9 °F - 48.0 °F 40% 29.83 in 10.0 mi East 10.4 mph 18.4 mph N/A   Clear
3:54 PM 75.0 °F - 45.0 °F 34% 29.80 in 10.0 mi ESE 13.8 mph - N/A   Clear
4:54 PM 75.9 °F - 44.1 °F 32% 29.76 in 10.0 mi ESE 17.3 mph - N/A   Partly Cloudy
5:54 PM 75.0 °F - 41.0 °F 29% 29.78 in 10.0 mi SSE 10.4 mph - N/A   Mostly Cloudy
6:41 PM 73.9 °F - 37.9 °F 27% 29.77 in 10.0 mi South 15.0 mph 27.6 mph N/A   Partly Cloudy
6:54 PM 73.9 °F - 37.0 °F 26% 29.77 in 10.0 mi South 15.0 mph - N/A   Mostly Cloudy
7:54 PM 68.0 °F - 46.0 °F 45% 29.81 in 10.0 mi SW 8.1 mph - 0.00 in Rain Light Rain
8:54 PM 64.0 °F - 48.9 °F 58% 29.79 in 10.0 mi SE 5.8 mph - 0.00 in   Scattered Clouds
9:54 PM 63.0 °F - 50.0 °F 63% 29.83 in 10.0 mi NNE 9.2 mph 32.2 mph N/A   Mostly Cloudy
10:54 PM 63.0 °F - 46.9 °F 56% 29.81 in 10.0 mi East 11.5 mph - N/A   Clear
11:54 PM 60.1 °F - 46.9 °F 62% 29.83 in 10.0 mi East 6.9 mph - N/A   Scattered Clouds